Regional Weather Roundup
Issued by NWS

Home | Current Version | Previous Version | Graphics & Text | Print | Product List | Glossary On
Versions: 1 2 3 4 5 6 7 8 9 10 11 12 13 14 15 16 17 18 19 20 21 22 23 24 25 26 27 28 29 30 31 32 33 34 35 36 37 38 39 40 41 42 43 44 45 46 47 48 49 50
000
ASUS43 KLSX 241807
RWRMO

WEATHER SUMMARY FOR MISSOURI
NATIONAL WEATHER SERVICE SPRINGFIELD MO
100 PM CDT FRI OCT 24 2014

NOTE: "FAIR" INDICATES FEW OR NO CLOUDS BELOW 12,000 FEET WITH NO
       SIGNIFICANT WEATHER AND/OR OBSTRUCTIONS TO VISIBILITY.
       CURRENT SKY AND/OR WEATHER CONDITIONS ARE NOT AVAILABLE FOR
       CHILLICOTHE AND FARMINGTON.

MOZ001>031-035>038-043-044-053-054-241900-
...NORTHERN AND WESTERN MISSOURI...

CITY           SKY/WX    TMP DP  RH WIND       PRES   REMARKS
KANSAS CTY INT CLOUDY    70  62  76 SW13      30.01F
6HR MIN TEMP:  57; 6HR MAX TEMP:  70;

KANSAS C DTWN  CLOUDY    73  61  65 SW9       30.01F
6HR MIN TEMP:  55; 6HR MAX TEMP:  73;

LEE`S SUMMIT   CLOUDY    70  60  70 SW10      30.03F
6HR MIN TEMP:  54; 6HR MAX TEMP:  71;

ST JOSEPH      CLOUDY    69  61  75 SW9       29.99F
6HR MIN TEMP:  57; 6HR MAX TEMP:  69;

CHILLICOTHE      N/A     64  60  87 S8        30.02F
6HR MIN TEMP:  57; 6HR MAX TEMP:  64;

KIRKSVILLE     CLOUDY    62  61  96 S14       30.03F FOG
6HR MIN TEMP:  55; 6HR MAX TEMP:  62;


$$
MOZ066>068-077>081-088>096-101>105-241900-
...SOUTHWEST MISSOURI...

CITY           SKY/WX    TMP DP  RH WIND       PRES   REMARKS
SPRINGFIELD    CLOUDY    73  58  59 SW9       30.10F
6HR MIN TEMP:  48; 6HR MAX TEMP:  73;

JOPLIN         PTSUNNY   72  59  63 SW13      30.10F
6HR MIN TEMP:  51; 6HR MAX TEMP:  72;


$$
MOZ032>034-039>042-045>050-055>058-069>072-241900-
...CENTRAL MISSOURI...

CITY           SKY/WX    TMP DP  RH WIND       PRES   REMARKS
COLUMBIA       CLOUDY    68  60  75 S8        30.08F
6HR MIN TEMP:  53; 6HR MAX TEMP:  68;

JEFFERSON CITY PTSUNNY   70  58  65 S6        30.08F
6HR MIN TEMP:  46; 6HR MAX TEMP:  70;

ROLLA          PTSUNNY   65  56  72 VRB5      30.10F
6HR MIN TEMP:  47; 6HR MAX TEMP:  65;

SEDALIA        PTSUNNY   70  58  65 SW12      30.07F
6HR MIN TEMP:  58; 6HR MAX TEMP:  70;

WHITEMAN AFB   MOSUNNY   69  58  68 SW8       30.05F
OSAGE BEACH    CLOUDY    72  55  56 S9        30.09F

$$
MOZ051-052-059>065-241900-
...EAST CENTRAL MISSOURI...

CITY           SKY/WX    TMP DP  RH WIND       PRES   REMARKS
ST LOUIS INTL  PTSUNNY   70  54  56 CALM      30.09F
6HR MIN TEMP:  54; 6HR MAX TEMP:  70;

SPIRIT OF STL  PTSUNNY   69  53  56 SW7       30.08F
6HR MIN TEMP:  50; 6HR MAX TEMP:  69;

ST CHARLES     SUNNY     68  53  58 W5        30.08F HAZE
6HR MIN TEMP:  51; 6HR MAX TEMP:  68;


$$
MOZ072>076-082>087-097>100-106>115-241900-
...SOUTH CENTRAL AND SOUTHEAST MISSOURI...

CITY           SKY/WX    TMP DP  RH WIND       PRES   REMARKS
CAPE GIRARDEAU SUNNY     66  56  70 CALM      30.11F
6HR MIN TEMP:  50; 6HR MAX TEMP:  68;

FARMINGTON     SUNNY     70  52  52 CALM      30.12F
6HR MIN TEMP:  48; 6HR MAX TEMP:  70;

POPLAR BLUFF   PTSUNNY   67  53  61 SW6       30.11F
6HR MIN TEMP:  49; 6HR MAX TEMP:  68;

WEST PLAINS    MOSUNNY   68  55  63 W5        30.13F
6HR MIN TEMP:  43; 6HR MAX TEMP:  69;


$$



USA.gov is the U.S. government's official web portal to all federal, state and local government web resources and services.